• In Slovakia
  • List of Countries
  • For 7 days
  • Water Temperature
  • Satellite Maps
  • Weather Map
  • Weather Widgets
  • user-avatar
    Login

    Hourly Weather Tumusin

    Today, 20 October, Saturday

    Time Temperature Precipitation Wind Pressure Humidity
    00:00 +11°C° 0 mm 1 mps 755 mmHg 76%
    01:00 +10°C° 0 mm 0 mps 756 mmHg 76%
    02:00 +10°C° 0 mm 0 mps 755 mmHg 76%
    03:00 +10°C° 0 mm 0 mps 755 mmHg 75%
    04:00 +10°C° 0 mm 0 mps 755 mmHg 75%
    05:00 +10°C° 0 mm 0 mps 756 mmHg 76%
    06:00 +11°C° 0 mm 1 mps 756 mmHg 77%
    07:00 +11°C° 0 mm 1 mps 756 mmHg 79%
    08:00 +10°C° 0.1 mm 2 mps 756 mmHg 80%
    09:00 +12°C° 0.1 mm 2 mps 756 mmHg 81%
    10:00 +12°C° 0.1 mm 2 mps 756 mmHg 81%
    11:00 +11°C° 0.1 mm 3 mps 756 mmHg 77%
    12:00 +12°C° 0.1 mm 3 mps 756 mmHg 73%
    13:00 +12°C° 0.1 mm 3 mps 756 mmHg 70%
    14:00 +12°C° 0 mm 3 mps 756 mmHg 67%
    15:00 +12°C° 0 mm 4 mps 756 mmHg 65%
    16:00 +11°C° 0 mm 4 mps 756 mmHg 63%
    17:00 +11°C° 0.1 mm 4 mps 756 mmHg 65%
    18:00 +10°C° 0.1 mm 3 mps 756 mmHg 67%
    19:00 +10°C° 0.1 mm 3 mps 756 mmHg 69%
    20:00 +9°C° 0.1 mm 3 mps 756 mmHg 71%
    21:00 +9°C° 0.1 mm 3 mps 756 mmHg 74%
    22:00 +9°C° 0.1 mm 3 mps 756 mmHg 76%
    23:00 +8°C° 0.1 mm 3 mps 757 mmHg 78%

    Tomorrow, 21 October, Sunday

    Time Temperature Precipitation Wind Pressure Humidity
    00:00 +8°C° 0.1 mm 3 mps 757 mmHg 81%
    01:00 +8°C° 0.1 mm 3 mps 757 mmHg 84%
    02:00 +7°C° 0 mm 3 mps 757 mmHg 87%
    03:00 +6°C° 0 mm 2 mps 757 mmHg 90%
    04:00 +6°C° 0 mm 2 mps 756 mmHg 93%
    05:00 +6°C° 0 mm 2 mps 757 mmHg 93%
    06:00 +6°C° 0 mm 2 mps 757 mmHg 93%
    07:00 +6°C° 0 mm 1 mps 758 mmHg 93%
    08:00 +8°C° 0 mm 1 mps 758 mmHg 85%
    09:00 +10°C° 0 mm 1 mps 758 mmHg 77%
    10:00 +11°C° 0 mm 1 mps 758 mmHg 69%
    11:00 +12°C° 0 mm 1 mps 758 mmHg 65%
    12:00 +13°C° 0 mm 1 mps 758 mmHg 60%
    13:00 +13°C° 0 mm 1 mps 758 mmHg 56%
    14:00 +13°C° 0 mm 1 mps 758 mmHg 58%
    15:00 +13°C° 0 mm 1 mps 758 mmHg 59%
    16:00 +12°C° 0 mm 1 mps 758 mmHg 61%
    17:00 +11°C° 0 mm 1 mps 758 mmHg 65%
    18:00 +10°C° 0 mm 1 mps 758 mmHg 68%
    19:00 +8°C° 0 mm 0 mps 758 mmHg 71%
    20:00 +9°C° 0 mm 1 mps 758 mmHg 73%
    21:00 +9°C° 0 mm 1 mps 758 mmHg 74%
    22:00 +8°C° 0 mm 1 mps 758 mmHg 76%
    23:00 +8°C° 0 mm 1 mps 758 mmHg 77%

    Day after tomorrow, 22 October, Monday

    Time Temperature Precipitation Wind Pressure Humidity
    00:00 +8°C° 0 mm 1 mps 758 mmHg 78%
    01:00 +7°C° 0 mm 1 mps 758 mmHg 80%
    02:00 +7°C° 0 mm 1 mps 758 mmHg 81%
    03:00 +7°C° 0 mm 1 mps 757 mmHg 83%
    04:00 +6°C° 0 mm 1 mps 757 mmHg 84%
    05:00 +6°C° 0 mm 1 mps 757 mmHg 85%
    06:00 +6°C° 0 mm 1 mps 757 mmHg 86%
    07:00 +6°C° 0 mm 1 mps 757 mmHg 86%
    08:00 +7°C° 0 mm 2 mps 757 mmHg 79%
    09:00 +9°C° 0 mm 2 mps 757 mmHg 72%
    10:00 +10°C° 0 mm 2 mps 756 mmHg 64%
    11:00 +11°C° 0 mm 3 mps 756 mmHg 60%
    12:00 +12°C° 0 mm 3 mps 755 mmHg 56%
    13:00 +13°C° 0 mm 3 mps 755 mmHg 51%
    14:00 +12°C° 0 mm 3 mps 755 mmHg 54%
    15:00 +12°C° 0 mm 3 mps 754 mmHg 56%
    16:00 +11°C° 0 mm 3 mps 754 mmHg 59%
    17:00 +11°C° 0.2 mm 3 mps 754 mmHg 65%
    18:00 +10°C° 0.2 mm 4 mps 754 mmHg 71%
    19:00 +8°C° 0.2 mm 4 mps 755 mmHg 77%
    20:00 +8°C° 0.5 mm 4 mps 755 mmHg 77%
    21:00 +8°C° 0.5 mm 4 mps 755 mmHg 78%
    22:00 +8°C° 0.5 mm 5 mps 755 mmHg 78%
    23:00 +7°C° 0 mm 4 mps 755 mmHg 79%

    23 October, Tuesday

    Time Temperature Precipitation Wind Pressure Humidity
    00:00 +6°C° 0 mm 4 mps 755 mmHg 80%
    01:00 +5°C° 0 mm 4 mps 755 mmHg 81%
    02:00 +5°C° 0 mm 4 mps 755 mmHg 81%
    03:00 +4°C° 0 mm 4 mps 755 mmHg 82%
    04:00 +4°C° 0 mm 4 mps 755 mmHg 83%
    05:00 +4°C° 0 mm 4 mps 755 mmHg 84%
    06:00 +4°C° 0 mm 4 mps 754 mmHg 85%
    07:00 +4°C° 0 mm 4 mps 754 mmHg 85%
    08:00 +5°C° 0 mm 5 mps 754 mmHg 79%
    09:00 +5°C° 0 mm 6 mps 753 mmHg 73%
    10:00 +6°C° 0 mm 7 mps 752 mmHg 67%
    11:00 +6°C° 0.1 mm 7 mps 751 mmHg 66%
    12:00 +6°C° 0.1 mm 8 mps 750 mmHg 65%
    13:00 +7°C° 0.1 mm 9 mps 749 mmHg 63%
    14:00 +6°C° 0.8 mm 9 mps 748 mmHg 68%
    15:00 +6°C° 0.8 mm 10 mps 747 mmHg 73%
    16:00 +5°C° 0.8 mm 10 mps 745 mmHg 77%
    17:00 +6°C° 1.5 mm 10 mps 744 mmHg 80%
    18:00 +6°C° 1.5 mm 10 mps 743 mmHg 82%
    19:00 +6°C° 1.5 mm 11 mps 742 mmHg 84%
    20:00 +7°C° 1.1 mm 11 mps 741 mmHg 84%
    21:00 +8°C° 1.1 mm 11 mps 740 mmHg 85%
    22:00 +8°C° 1.1 mm 11 mps 739 mmHg 85%
    23:00 +8°C° 1.4 mm 10 mps 738 mmHg 85%

    24 October, Wednesday

    Time Temperature Precipitation Wind Pressure Humidity
    00:00 +8°C° 1.4 mm 10 mps 737 mmHg 85%
    01:00 +9°C° 1.4 mm 10 mps 737 mmHg 85%
    02:00 +8°C° 0.6 mm 10 mps 737 mmHg 81%
    03:00 +8°C° 0.6 mm 10 mps 737 mmHg 78%
    04:00 +7°C° 0.6 mm 10 mps 737 mmHg 74%
    05:00 +6°C° 0.1 mm 9 mps 738 mmHg 70%
    06:00 +6°C° 0.1 mm 9 mps 739 mmHg 67%
    07:00 +5°C° 0.1 mm 9 mps 740 mmHg 64%
    08:00 +5°C° 0 mm 9 mps 741 mmHg 58%
    09:00 +5°C° 0 mm 10 mps 742 mmHg 52%
    10:00 +6°C° 0 mm 10 mps 742 mmHg 47%
    11:00 +6°C° 0 mm 10 mps 743 mmHg 45%
    12:00 +6°C° 0 mm 10 mps 743 mmHg 43%
    13:00 +7°C° 0 mm 10 mps 743 mmHg 42%
    14:00 +6°C° 0 mm 9 mps 743 mmHg 43%
    15:00 +6°C° 0 mm 8 mps 744 mmHg 45%
    16:00 +5°C° 0 mm 6 mps 744 mmHg 46%
    17:00 +5°C° 0 mm 6 mps 745 mmHg 48%
    18:00 +4°C° 0 mm 6 mps 745 mmHg 50%
    19:00 +3°C° 0 mm 6 mps 746 mmHg 52%
    20:00 +3°C° 0 mm 6 mps 746 mmHg 54%
    21:00 +3°C° 0 mm 6 mps 746 mmHg 55%
    22:00 +3°C° 0 mm 6 mps 746 mmHg 57%
    23:00 +2°C° 0 mm 6 mps 746 mmHg 60%

    25 October, Thursday

    Time Temperature Precipitation Wind Pressure Humidity
    00:00 +2°C° 0 mm 5 mps 747 mmHg 64%
    01:00 +2°C° 0 mm 5 mps 747 mmHg 67%
    02:00 +2°C° 0 mm 5 mps 747 mmHg 71%
    03:00 +2°C° 0 mm 5 mps 747 mmHg 75%
    04:00 +1°C° 0 mm 4 mps 747 mmHg 79%
    05:00 +3°C° 0.1 mm 4 mps 746 mmHg 80%
    06:00 +3°C° 0.1 mm 4 mps 746 mmHg 81%
    07:00 +4°C° 0.1 mm 4 mps 746 mmHg 82%
    08:00 +5°C° 0.7 mm 4 mps 745 mmHg 85%
    09:00 +6°C° 0.7 mm 5 mps 745 mmHg 88%
    10:00 +7°C° 0.7 mm 6 mps 745 mmHg 91%
    11:00 +8°C° 0.2 mm 7 mps 744 mmHg 85%
    12:00 +9°C° 0.2 mm 8 mps 744 mmHg 80%
    13:00 +10°C° 0.2 mm 9 mps 743 mmHg 74%
    14:00 +8°C° 0 mm 9 mps 743 mmHg 76%
    15:00 +9°C° 0 mm 8 mps 743 mmHg 78%
    16:00 +9°C° 0 mm 8 mps 743 mmHg 80%
    17:00 +9°C° 0.1 mm 8 mps 743 mmHg 80%
    18:00 +9°C° 0.1 mm 8 mps 743 mmHg 81%
    19:00 +9°C° 0.1 mm 8 mps 744 mmHg 81%
    20:00 +9°C° 0.2 mm 8 mps 744 mmHg 82%
    21:00 +9°C° 0.2 mm 8 mps 744 mmHg 82%
    22:00 +9°C° 0.2 mm 8 mps 744 mmHg 83%
    23:00 +9°C° 0.2 mm 8 mps 744 mmHg 83%
    Show more